User: anonymous   Login
Location: Unspecified
(0.0000°N, 0.0000°E)
Time: 03:14:48
(UTC+00:00)
Language:

MOZHAYETS 4 - Orbit

View from above orbital plane
View from above orbital plane
View from above satellite
View from above satellite

Ground track
Ground track

The orbit data is extracted from the following two-line orbital elements,

1 27939U 03042A   19083.88912994  .00000038  00000-0  15403-4 0  9998
2 27939  98.0251 221.4495 0012171 346.2282  13.8594 14.66762286827963
Epoch (UTC): 24 March 2019 21:20:20
Eccentricity: 0.0012171
inclination: 98.0251°
perigee height: 663 km
apogee height: 680 km
right ascension of ascending node: 221.4495°
argument of perigee: 346.2282°
revolutions per day: 14.66762286
mean anomaly at epoch: 13.8594°
orbit number at epoch: 82796

The dashed part of the orbit path shows where the satellite is in the earth's shadow,  

DLR